Regional Weather Roundup
Issued by NWS

Home | Current Version | Previous Version | Text Only | Print | Product List | Glossary Off
Versions: 1 2 3 4 5 6 7 8 9 10 11 12 13 14 15 16 17 18 19 20 21 22 23 24 25 26 27 28 29 30 31 32 33 34 35 36 37 38 39 40 41 42 43 44 45 46 47 48 49 50

000
ASUS43 KLOT 291303
RWRIL

ILLINOIS REGIONAL WEATHER ROUNDUP
NATIONAL WEATHER SERVICE CHICAGO/ROMEOVILLE IL
800 AM CDT SUN MAY 29 2016

NOTE: "FAIR" INDICATES FEW OR NO CLOUDS BELOW 12,000 FEET WITH NO
SIGNIFICANT WEATHER AND/OR OBSTRUCTIONS TO VISIBILITY.

* THESE STATIONS ARE NOT UNDER NWS QUALITY CONTROL. THEY ALSO MAY NOT
  REPORT WEATHER SUCH AS PRECIPITATION OR FOG.

ILZ001-002-007-009-015-016-024-291400-
NORTHWEST ILLINOIS

CITY           SKY/WX    TMP DP  RH WIND       PRES   REMARKS
MOLINE         PTSUNNY   68  59  73 W10       30.01R
STERLING*      SUNNY     68  61  78 W17G23    29.99
$$

ILZ003-004-008-010-011-017-018-291400-
NORTH CENTRAL ILLINOIS

CITY           SKY/WX    TMP DP  RH WIND       PRES   REMARKS
ROCKFORD       SUNNY     69  60  73 SW13G21   29.98S
FREEPORT*      MOSUNNY   65  59  80 SW16G23   29.98R
ROCHELLE*      SUNNY     68  62  80 SW16      29.99S
DE KALB*       SUNNY     68  63  85 SW12      30.00R
$$

ILZ005-006-012>014-019>023-291400-
NORTHEAST ILLINOIS

CITY           SKY/WX    TMP DP  RH WIND       PRES   REMARKS
CHICAGO-OHARE  MOSUNNY   70  62  76 SW13      29.98S
CHICAGO-MIDWAY MOSUNNY   72  61  68 SW12      29.99S
AURORA         SUNNY     70  63  78 S13       30.00R
LANSING*       SUNNY     71  63  75 SW10      30.01S
WAUKEGAN       MOSUNNY   70  63  78 SW15      29.96S
DUPAGE AIRPORT SUNNY     70  61  73 SW14      29.99R
WHEELING       SUNNY     70  62  76 SW9       29.98F
MORRIS*        SUNNY     71  64  77 SW12      30.00R
NORTHERLY ISL    N/A     71  59  65 SW10        N/A
NORTHERLY ISL    N/A     71  59  65 SW10        N/A
$$

LMZ740>746-291400-
SOUTHERN LAKE MICHIGAN

STATION/POSITION SKY/WX   TEMP    WIND        PRES    VSBY  WAVE
                          AIR SEA DIR/SP/G                  HT/PER
                          (F)     (DEG/KT/KT) (MB)    (MI)  (FT/S)
SOUTHERN BUOY              54 50  170/ 10/ 10 1014.6          1/ 3
WILMETTE HARBOR            60 52  210/  6/  8   N/A           1
HARRISON CRIB              68     210/ 16/ 17   N/A
BURNHAM HARBOR             72     200/  9/  9   N/A
CALUMET HARBOR             68     210/  7/ 12 1015.2R
BURNS HARBOR               67     210/ 12/ 16 1016.6R
MICHIGAN CITY              68     180/ 11/ 15   N/A
MICHIGAN CITY 6N           62 56  220/  8/ 10   N/A           1/ 2
ST. JOSEPH                 64 61  170/  6/  8   N/A           1/ 3
$$

ILZ025>027-034>036-040-047-049-050-058-095>099-291400-
WEST-CENTRAL ILLINOIS

CITY           SKY/WX    TMP DP  RH WIND       PRES   REMARKS
QUINCY         SUNNY     69  61  75 W8        30.07R
MACOMB*        SUNNY     68  60  76 W12       30.07R
PITTSFIELD*    SUNNY     71  63  76 W7        30.08R
$$

ILZ028>032-037-038-041>044-048-051>054-059>061-291400-
CENTRAL ILLINOIS

CITY           SKY/WX    TMP DP  RH WIND       PRES   REMARKS
BLOOMINGTON    SUNNY     70  68  93 SW12      30.06R
DECATUR        SUNNY     73  65  75 SW8       30.07R
PEORIA         SUNNY     69  61  75 SW9       30.03R
LINCOLN*       SUNNY     73  67  81 CALM      30.05R
SPRINGFIELD    SUNNY     73  63  70 SW8       30.07R
TAYLORVILLE    NOT AVBL
$$

ILZ033-039-045-046-055>057-062-063-291400-
EAST-CENTRAL ILLINOIS

CITY           SKY/WX    TMP DP  RH WIND       PRES   REMARKS
CHAMPAIGN      SUNNY     73  66  78 SW9       30.07R
MATTOON        SUNNY     74  64  71 SW6       30.07R
$$

ILZ079-100>102-291400-
SOUTHWEST ILLINOIS

CITY           SKY/WX    TMP DP  RH WIND       PRES   REMARKS
CAHOKIA*       SUNNY     72  65  78 SW3       30.08R
SPARTA*        SUNNY     72  68  88 W3        30.09S
$$

ILZ064>066-069>071-074>076-080>082-084>086-088>090-092>094-291400-
SOUTH-CENTRAL ILLINOIS

CITY           SKY/WX    TMP DP  RH WIND       PRES   REMARKS
CARBONDALE     SUNNY     71  68  90 S3        30.09R
CAIRO*         SUNNY     72  69  91 S3        30.10R
EFFINGHAM*     SUNNY     73  72  96 S5        30.10R
MARION         PTSUNNY   73  70  88 S6        30.10R
MT. VERNON     CLOUDY    72  66  83 SW6       30.10R
SALEM*         SUNNY     73  69  87 S6        30.09R
$$

ILZ067-068-072-073-078-083-087-091-291400-
SOUTHEAST ILLINOIS

CITY           SKY/WX    TMP DP  RH WIND       PRES   REMARKS
LAWRENCEVILLE  SUNNY     74  69  85 SW8       30.09R
FLORA*         SUNNY     73  70  91 S7        30.09R
HARRISBURG*    MOSUNNY   71  68  91 CALM      30.10S
ROBINSON*      SUNNY     73  69  87 SW7       30.09R
CARMI*         MOSUNNY   73  69  88 S6        30.09R
$$

ABBREVIATIONS USED IN REMARKS
   TC - TEMPERATURE IN CELSIUS
  WCI - WIND CHILL INDEX
   HX - HEAT INDEX
  VSB - VISIBILITY
$$





USA.gov is the U.S. government's official web portal to all federal, state and local government web resources and services.